Time,TemperatureF,DewpointF,PressureIn,WindDirection,WindDirectionDegrees,WindSpeedMPH,WindSpeedGustMPH,Humidity,HourlyPrecipIn,Conditions,Clouds,dailyrainin,SolarRadiationWatts/m^2,SoftwareType,DateUTC
2013-09-26 00:01:00,44.0,40.0,-100.00,SE,133,2.0,5.0,86,0.00,,,0.01,0.000000,,2013-09-26 07:01:00,
2013-09-26 00:12:00,44.0,40.0,-100.00,SE,133,2.0,5.0,86,0.00,,,0.01,0.000000,,2013-09-26 07:12:00,
2013-09-26 00:22:00,44.0,40.0,-100.00,SE,133,2.0,5.0,86,0.00,,,0.01,0.000000,,2013-09-26 07:22:00,
2013-09-26 00:53:00,43.0,38.0,-100.00,South,181,2.0,3.0,83,0.00,,,0.01,0.000000,,2013-09-26 07:53:00,
2013-09-26 01:02:00,43.0,38.0,-100.00,South,181,2.0,3.0,83,0.00,,,0.01,0.000000,,2013-09-26 08:02:00,
2013-09-26 01:11:00,43.0,38.0,-100.00,South,181,2.0,3.0,83,0.00,,,0.01,0.000000,,2013-09-26 08:11:00,
2013-09-26 01:22:00,43.0,38.0,-100.00,South,181,2.0,3.0,83,0.00,,,0.01,0.000000,,2013-09-26 08:22:00,
2013-09-26 01:52:00,43.0,36.0,-100.00,SE,139,2.0,4.0,75,0.00,,,0.01,0.000000,,2013-09-26 08:52:00,
2013-09-26 02:02:00,43.0,36.0,-100.00,SE,139,2.0,4.0,75,0.00,,,0.01,0.000000,,2013-09-26 09:02:00,
2013-09-26 02:11:00,43.0,36.0,-100.00,SE,139,2.0,4.0,75,0.00,,,0.01,0.000000,,2013-09-26 09:11:00,
2013-09-26 02:22:00,43.0,36.0,-100.00,SE,139,2.0,4.0,75,0.00,,,0.01,0.000000,,2013-09-26 09:22:00,
2013-09-26 02:54:00,42.0,35.0,-100.00,SE,134,2.0,5.0,75,0.00,,,0.01,0.000000,,2013-09-26 09:54:00,
2013-09-26 03:03:00,42.0,35.0,-100.00,SE,134,2.0,5.0,75,0.00,,,0.01,0.000000,,2013-09-26 10:03:00,
2013-09-26 03:12:00,42.0,35.0,-100.00,SE,134,2.0,5.0,75,0.00,,,0.01,0.000000,,2013-09-26 10:12:00,
2013-09-26 03:23:00,42.0,35.0,-100.00,SE,134,2.0,5.0,75,0.00,,,0.01,0.000000,,2013-09-26 10:23:00,
2013-09-26 03:53:00,43.0,34.0,-100.00,SSW,195,1.0,4.0,69,0.00,,,0.01,0.000000,,2013-09-26 10:53:00,
2013-09-26 04:02:00,43.0,34.0,-100.00,SSW,195,1.0,4.0,69,0.00,,,0.01,0.000000,,2013-09-26 11:02:00,
2013-09-26 04:12:00,43.0,34.0,-100.00,SSW,195,1.0,4.0,69,0.00,,,0.01,0.000000,,2013-09-26 11:12:00,
2013-09-26 04:22:00,43.0,34.0,-100.00,SSW,195,1.0,4.0,69,0.00,,,0.01,0.000000,,2013-09-26 11:22:00,
2013-09-26 04:52:00,43.0,34.0,-100.00,South,176,1.0,4.0,69,0.00,,,0.01,0.000000,,2013-09-26 11:52:00,
2013-09-26 05:01:00,43.0,34.0,-100.00,South,176,1.0,4.0,69,0.00,,,0.01,0.000000,,2013-09-26 12:01:00,
2013-09-26 05:11:00,43.0,34.0,-100.00,South,176,1.0,4.0,69,0.00,,,0.01,0.000000,,2013-09-26 12:11:00,
2013-09-26 05:21:00,43.0,34.0,-100.00,South,176,1.0,4.0,69,0.00,,,0.01,0.000000,,2013-09-26 12:21:00,
2013-09-26 05:52:00,43.0,34.0,-100.00,SSE,149,2.0,3.0,69,0.00,,,0.01,0.000000,,2013-09-26 12:52:00,
2013-09-26 06:02:00,43.0,34.0,-100.00,SSE,149,2.0,3.0,69,0.00,,,0.01,0.000000,,2013-09-26 13:02:00,
2013-09-26 06:11:00,43.0,34.0,-100.00,SSE,149,2.0,3.0,69,0.00,,,0.01,0.000000,,2013-09-26 13:11:00,
2013-09-26 06:21:00,43.0,34.0,-100.00,SSE,149,2.0,3.0,69,0.00,,,0.01,0.000000,,2013-09-26 13:21:00,
2013-09-26 06:52:00,42.0,32.0,-100.00,SSW,208,0.0,3.0,67,0.00,,,0.00,0.000000,,2013-09-26 13:52:00,
2013-09-26 07:02:00,42.0,32.0,-100.00,SSW,208,0.0,3.0,67,0.00,,,0.00,0.000000,,2013-09-26 14:02:00,
2013-09-26 07:11:00,42.0,32.0,-100.00,SSW,208,0.0,3.0,67,0.00,,,0.00,0.000000,,2013-09-26 14:11:00,
2013-09-26 07:22:00,42.0,32.0,-100.00,SSW,208,0.0,3.0,67,0.00,,,0.00,0.000000,,2013-09-26 14:22:00,
2013-09-26 07:52:00,42.0,32.0,-100.00,South,177,1.0,3.0,67,0.00,,,0.00,2.000000,,2013-09-26 14:52:00,
2013-09-26 08:02:00,42.0,32.0,-100.00,South,177,1.0,3.0,67,0.00,,,0.00,2.000000,,2013-09-26 15:02:00,
2013-09-26 08:11:00,42.0,32.0,-100.00,South,177,1.0,3.0,67,0.00,,,0.00,2.000000,,2013-09-26 15:11:00,
2013-09-26 08:22:00,42.0,32.0,-100.00,South,177,1.0,3.0,67,0.00,,,0.00,2.000000,,2013-09-26 15:22:00,
2013-09-26 08:54:00,44.0,34.0,-100.00,ESE,120,1.0,4.0,68,0.00,,,0.00,16.000000,,2013-09-26 15:54:00,
2013-09-26 09:04:00,44.0,34.0,-100.00,ESE,120,1.0,4.0,68,0.00,,,0.00,16.000000,,2013-09-26 16:04:00,
2013-09-26 09:13:00,44.0,34.0,-100.00,ESE,120,1.0,4.0,68,0.00,,,0.00,16.000000,,2013-09-26 16:13:00,
2013-09-26 09:24:00,44.0,34.0,-100.00,ESE,120,1.0,4.0,68,0.00,,,0.00,16.000000,,2013-09-26 16:24:00,
2013-09-26 09:53:00,51.0,38.0,-100.00,NW,313,0.0,5.0,60,0.00,,,0.00,198.000000,,2013-09-26 16:53:00,
2013-09-26 10:03:00,51.0,38.0,-100.00,NW,313,0.0,5.0,60,0.00,,,0.00,198.000000,,2013-09-26 17:03:00,
2013-09-26 10:12:00,51.0,38.0,-100.00,NW,313,0.0,5.0,60,0.00,,,0.00,198.000000,,2013-09-26 17:12:00,
2013-09-26 10:23:00,51.0,38.0,-100.00,NW,313,0.0,5.0,60,0.00,,,0.00,198.000000,,2013-09-26 17:23:00,
2013-09-26 10:52:00,55.0,37.0,-100.00,West,280,0.0,3.0,51,0.00,,,0.00,397.000000,,2013-09-26 17:52:00,
2013-09-26 11:01:00,55.0,37.0,-100.00,West,280,0.0,3.0,51,0.00,,,0.00,397.000000,,2013-09-26 18:01:00,
2013-09-26 11:13:00,55.0,37.0,-100.00,West,280,0.0,3.0,51,0.00,,,0.00,397.000000,,2013-09-26 18:13:00,
2013-09-26 11:21:00,55.0,37.0,-100.00,West,280,0.0,3.0,51,0.00,,,0.00,397.000000,,2013-09-26 18:21:00,
2013-09-26 11:52:00,55.0,37.0,-100.00,North,355,3.0,4.0,50,0.00,,,0.00,524.000000,,2013-09-26 18:52:00,
2013-09-26 12:03:00,55.0,37.0,-100.00,North,355,3.0,4.0,50,0.00,,,0.00,524.000000,,2013-09-26 19:03:00,
2013-09-26 12:12:00,55.0,37.0,-100.00,North,355,3.0,4.0,50,0.00,,,0.00,524.000000,,2013-09-26 19:12:00,
2013-09-26 12:22:00,55.0,37.0,-100.00,North,355,3.0,4.0,50,0.00,,,0.00,524.000000,,2013-09-26 19:22:00,
2013-09-26 12:52:00,56.0,37.0,-100.00,North,357,3.0,7.0,48,0.00,,,0.00,611.000000,,2013-09-26 19:52:00,
2013-09-26 13:02:00,56.0,37.0,-100.00,North,357,3.0,7.0,48,0.00,,,0.00,611.000000,,2013-09-26 20:02:00,
2013-09-26 13:12:00,56.0,37.0,-100.00,North,357,3.0,7.0,48,0.00,,,0.00,611.000000,,2013-09-26 20:12:00,
2013-09-26 13:22:00,56.0,37.0,-100.00,North,357,3.0,7.0,48,0.00,,,0.00,611.000000,,2013-09-26 20:22:00,
2013-09-26 13:52:00,56.0,39.0,-100.00,NW,324,4.0,12.0,53,0.00,,,0.00,642.000000,,2013-09-26 20:52:00,
2013-09-26 14:02:00,56.0,39.0,-100.00,NW,324,4.0,12.0,53,0.00,,,0.00,642.000000,,2013-09-26 21:02:00,
2013-09-26 14:11:00,56.0,39.0,-100.00,NW,324,4.0,12.0,53,0.00,,,0.00,642.000000,,2013-09-26 21:11:00,
2013-09-26 14:23:00,56.0,39.0,-100.00,NW,324,4.0,12.0,53,0.00,,,0.00,642.000000,,2013-09-26 21:23:00,
2013-09-26 14:54:00,58.0,41.0,-100.00,NW,314,4.0,11.0,54,0.00,,,0.00,639.000000,,2013-09-26 21:54:00,
2013-09-26 15:04:00,58.0,41.0,-100.00,NW,314,4.0,11.0,54,0.00,,,0.00,639.000000,,2013-09-26 22:04:00,
2013-09-26 15:14:00,58.0,41.0,-100.00,NW,314,4.0,11.0,54,0.00,,,0.00,639.000000,,2013-09-26 22:14:00,
2013-09-26 15:24:00,58.0,41.0,-100.00,NW,314,4.0,11.0,54,0.00,,,0.00,639.000000,,2013-09-26 22:24:00,
2013-09-26 15:54:00,57.0,40.0,-100.00,WNW,282,4.0,9.0,53,0.00,,,0.00,465.000000,,2013-09-26 22:54:00,
2013-09-26 16:03:00,57.0,40.0,-100.00,WNW,282,4.0,9.0,53,0.00,,,0.00,465.000000,,2013-09-26 23:03:00,
2013-09-26 16:12:00,57.0,40.0,-100.00,WNW,282,4.0,9.0,53,0.00,,,0.00,465.000000,,2013-09-26 23:12:00,
2013-09-26 16:23:00,57.0,40.0,-100.00,WNW,282,4.0,9.0,53,0.00,,,0.00,465.000000,,2013-09-26 23:23:00,
2013-09-26 16:53:00,56.0,42.0,-100.00,West,271,3.0,5.0,59,0.00,,,0.00,174.000000,,2013-09-26 23:53:00,
2013-09-26 17:02:00,56.0,42.0,-100.00,West,271,3.0,5.0,59,0.00,,,0.00,174.000000,,2013-09-27 00:02:00,
2013-09-26 17:22:00,56.0,42.0,-100.00,West,271,3.0,5.0,59,0.00,,,0.00,174.000000,,2013-09-27 00:22:00,
2013-09-26 17:52:00,56.0,41.0,-100.00,West,264,3.0,6.0,56,0.00,,,0.00,247.000000,,2013-09-27 00:52:00,
2013-09-26 18:01:00,56.0,41.0,-100.00,West,264,3.0,6.0,56,0.00,,,0.00,247.000000,,2013-09-27 01:01:00,
2013-09-26 18:11:00,56.0,41.0,-100.00,West,264,3.0,6.0,56,0.00,,,0.00,247.000000,,2013-09-27 01:11:00,
2013-09-26 18:23:00,56.0,41.0,-100.00,West,264,3.0,6.0,56,0.00,,,0.00,247.000000,,2013-09-27 01:23:00,
2013-09-26 18:52:00,51.0,43.0,-100.00,West,263,4.0,13.0,73,0.00,,,0.00,147.000000,,2013-09-27 01:52:00,
2013-09-26 19:02:00,51.0,43.0,-100.00,West,263,4.0,13.0,73,0.00,,,0.00,147.000000,,2013-09-27 02:02:00,
2013-09-26 19:12:00,51.0,43.0,-100.00,West,263,4.0,13.0,73,0.00,,,0.00,147.000000,,2013-09-27 02:12:00,
2013-09-26 19:22:00,51.0,43.0,-100.00,West,263,4.0,13.0,73,0.00,,,0.00,147.000000,,2013-09-27 02:22:00,
2013-09-26 19:53:00,49.0,43.0,-100.00,East,101,2.0,8.0,80,0.00,,,-99.99,10.000000,,2013-09-27 02:53:00,
2013-09-26 20:02:00,49.0,43.0,-100.00,East,101,2.0,8.0,80,0.00,,,-99.99,10.000000,,2013-09-27 03:02:00,
2013-09-26 20:12:00,49.0,43.0,-100.00,East,101,2.0,8.0,80,0.00,,,-99.99,10.000000,,2013-09-27 03:12:00,
2013-09-26 20:21:00,49.0,43.0,-100.00,East,101,2.0,8.0,80,0.00,,,-99.99,10.000000,,2013-09-27 03:21:00,
2013-09-26 20:55:00,47.0,44.0,-100.00,SE,136,1.0,3.0,89,0.00,,,0.00,0.000000,,2013-09-27 03:55:00,
2013-09-26 21:05:00,47.0,44.0,-100.00,SE,136,1.0,3.0,89,0.00,,,0.00,0.000000,,2013-09-27 04:05:00,
2013-09-26 21:13:00,47.0,44.0,-100.00,SE,136,1.0,3.0,89,0.00,,,0.00,0.000000,,2013-09-27 04:13:00,
2013-09-26 21:24:00,47.0,44.0,-100.00,SE,136,1.0,3.0,89,0.00,,,0.00,0.000000,,2013-09-27 04:24:00,
2013-09-26 21:54:00,46.0,44.0,-100.00,SW,217,1.0,3.0,92,0.00,,,0.00,0.000000,,2013-09-27 04:54:00,
2013-09-26 22:04:00,46.0,44.0,-100.00,SW,217,1.0,3.0,92,0.00,,,0.00,0.000000,,2013-09-27 05:04:00,
2013-09-26 22:12:00,46.0,44.0,-100.00,SW,217,1.0,3.0,92,0.00,,,0.00,0.000000,,2013-09-27 05:12:00,
2013-09-26 22:23:00,46.0,44.0,-100.00,SW,217,1.0,3.0,92,0.00,,,0.00,0.000000,,2013-09-27 05:23:00,
2013-09-26 22:52:00,46.0,44.0,-100.00,ESE,113,2.0,4.0,93,0.00,,,0.00,0.000000,,2013-09-27 05:52:00,
2013-09-26 23:02:00,46.0,44.0,-100.00,ESE,113,2.0,4.0,93,0.00,,,0.00,0.000000,,2013-09-27 06:02:00,
2013-09-26 23:11:00,46.0,44.0,-100.00,ESE,113,2.0,4.0,93,0.00,,,0.00,0.000000,,2013-09-27 06:11:00,
2013-09-26 23:22:00,46.0,44.0,-100.00,ESE,113,2.0,4.0,93,0.00,,,0.00,0.000000,,2013-09-27 06:22:00,
2013-09-26 23:52:00,46.0,44.0,-100.00,South,180,0.0,3.0,93,0.00,,,0.00,0.000000,,2013-09-27 06:52:00,